Location: Sternwarte-Kirchheim
(50.8752°N, 11.0153°E)
Time: 20:19:56
(UTC+01:00)

ISS - Pass Details

Date: 25 February 2019
Orbit: 406 x 411 km, 51.6° (Epoch: 19 March)

Event Time Altitude Azimuth Distance (km) Brightness Sun altitude
Exits shadow 06:22:25 - 221° (SW) 2,358 -0.3 -8.2°
Rises 06:22:31 0° 221° (SW) 2,318 -0.3 -8.2°
Reaches altitude 10° 06:24:45 10° 210° (SSW) 1,461 -1.2 -7.8°
Maximum altitude 06:27:37 29° 148° (SSE) 783 -1.9 -7.3°
Drops below altitude 10° 06:30:31 10° 86° (E) 1,470 0.7 -6.9°
Sets 06:32:46 0° 75° (ENE) 2,335 1.6 -6.5°
